AB1IG Weather Reports


Display with metric or nautical units.
time (UTC)temp
F
wind
direction
speed
MPH
gust
MPH
rain 1hr
in
rain 24hr
in
rain mn
in
humidity
%
barometer
mb
20260905041514 89 221 2.0 8.0 0.00 0.00 0.00 51 1008.5
20260905040013 89 347 1.0 5.0 0.00 0.00 0.00 51 1008.4
20260905034516 89 226 1.0 6.0 0.00 0.00 0.00 50 1008.4
20260905033012 89 148 2.0 8.0 0.00 0.00 0.00 50 1008.2
20260905031515 90 129 1.0 8.0 0.00 0.00 0.00 49 1008.0
20260905030014 90 145 1.0 6.0 0.00 0.00 0.00 49 1007.8
20260905024514 91 208 2.0 9.0 0.00 0.00 0.00 48 1007.6
20260905023016 91 159 1.0 5.0 0.00 0.00 0.00 47 1007.4
20260905021520 91 334 0.0 5.0 0.00 0.00 0.00 47 1007.1
20260905020009 92 139 0.0 5.0 0.00 0.00 0.00 47 1006.9
20260905014509 92 257 1.0 5.0 0.00 0.00 0.00 46 1006.6
20260905013007 92 190 1.0 7.0 0.00 0.00 0.00 46 1006.5
20260905011507 93 198 2.0 7.0 0.00 0.00 0.00 46 1006.3
20260905010105 93 125 0.0 8.0 0.00 0.00 0.00 45 1006.1
20260905004505 94 250 2.0 7.0 0.00 0.00 0.00 44 1006.1
20260905003008 95 218 1.0 5.0 0.00 0.00 0.00 43 1006.0
20260905001506 96 155 1.0 5.0 0.00 0.00 0.00 42 1006.0
20260905000003 96 263 2.0 7.0 0.00 0.00 0.00 42 1005.9
20260904234503 97 79 2.0 7.0 0.00 0.00 0.00 41 1006.0
20260904233004 97 245 2.0 7.0 0.00 0.00 0.00 41 1006.0
20260904231502 99 128 1.0 7.0 0.00 0.00 0.00 39 1005.8
20260904230101 100 94 1.0 7.0 0.00 0.00 0.00 39 1005.9
20260904230002 99 159 2.0 7.0 0.00 0.00 0.00 39 1005.9
20260904224559 100 287 2.0 7.0 0.00 0.00 0.00 39 1005.8
20260904223059 100 179 2.0 7.0 0.00 0.00 0.00 38 1005.8
20260904221557 100 238 2.0 8.0 0.00 0.00 0.00 38 1005.8
20260904220107 100 156 2.0 9.0 0.00 0.00 0.00 38 1005.8
20260904214555 101 246 2.0 8.0 0.00 0.00 0.00 37 1006.0
20260904213053 101 245 3.0 9.0 0.00 0.00 0.00 38 1006.1
20260904211551 100 172 2.0 9.0 0.00 0.00 0.00 39 1006.2
20260904210055 100 253 3.0 9.0 0.00 0.00 0.00 38 1006.4
20260904204549 101 264 2.0 8.0 0.00 0.00 0.00 38 1006.6
20260904203049 101 146 2.0 8.0 0.00 0.00 0.00 37 1006.6
20260904201600 101 194 2.0 11.0 0.00 0.00 0.00 37 1006.7
20260904200050 101 39 2.0 7.0 0.00 0.00 0.00 36 1006.9
20260904194540 100 210 2.0 8.0 0.00 0.00 0.00 38 1007.0
20260904193039 100 225 4.0 10.0 0.00 0.00 0.00 38 1007.1
20260904191540 100 316 2.0 16.0 0.00 0.00 0.00 39 1007.2
20260904190034 99 232 2.0 9.0 0.00 0.00 0.00 40 1007.3
20260904184539 98 222 3.0 9.0 0.00 0.00 0.00 42 1007.7
20260904183031 98 312 1.0 7.0 0.00 0.00 0.00 43 1007.6
20260904181532 96 293 3.0 8.0 0.00 0.00 0.00 45 1008.0
20260904180024 96 142 2.0 10.0 0.00 0.00 0.00 47 1008.1
20260904174527 95 66 2.0 9.0 0.00 0.00 0.00 48 1008.3
20260904173016 95 66 2.0 10.0 0.00 0.00 0.00 48 1008.6
20260904171514 94 120 3.0 7.0 0.00 0.00 0.00 50 1008.7
20260904170008 93 129 1.0 7.0 0.00 0.00 0.00 52 1008.9
20260904164506 92 245 1.0 10.0 0.00 0.00 0.00 53 1009.0
20260904163008 91 297 1.0 6.0 0.00 0.00 0.00 55 1009.0
20260904161611 90 176 3.0 8.0 0.00 0.00 0.00 56 1009.0
20260904160057 89 150 3.0 12.0 0.00 0.00 0.00 58 1009.0
20260904154552 87 210 1.0 7.0 0.00 0.00 0.00 62 1008.9
20260904153056 85 111 2.0 11.0 0.00 0.00 0.00 64 1008.9
20260904151548 84 229 3.0 9.0 0.00 0.00 0.00 66 1009.0
20260904150046 82 87 3.0 10.0 0.00 0.00 0.00 69 1009.0
20260904144537 81 288 3.0 8.0 0.00 0.00 0.00 71 1008.9
20260904143036 80 251 2.0 8.0 0.00 0.00 0.00 73 1008.9
20260904141538 79 242 4.0 9.0 0.00 0.00 0.00 74 1008.9
20260904140035 79 229 2.0 8.0 0.00 0.00 0.00 75 1009.0
20260904134533 78 219 2.0 7.0 0.00 0.00 0.00 75 1009.0
20260904133033 78 281 2.0 6.0 0.00 0.00 0.00 76 1008.9
20260904131531 77 275 0.0 8.0 0.00 0.00 0.00 77 1008.8
20260904130035 76 191 3.0 10.0 0.00 0.00 0.00 77 1008.7
20260904124529 76 285 1.0 7.0 0.00 0.00 0.00 78 1008.5
20260904123027 76 239 1.0 6.0 0.00 0.00 0.00 78 1008.4
20260904121528 76 202 1.0 6.0 0.00 0.00 0.00 78 1008.3
20260904120024 76 224 2.0 7.0 0.00 0.00 0.00 77 1008.3
20260904114527 76 159 2.0 9.0 0.00 0.00 0.00 77 1008.1
20260904113035 76 71 1.0 6.0 0.00 0.00 0.00 77 1008.1
20260904111522 76 235 1.0 5.0 0.00 0.00 0.00 76 1008.2
20260904110022 76 154 1.0 5.0 0.00 0.00 0.00 76 1008.1
20260904104520 76 127 1.0 6.0 0.00 0.00 0.00 76 1008.0
20260904103019 77 124 2.0 7.0 0.00 0.00 0.00 76 1007.9
20260904101518 77 261 2.0 5.0 0.00 0.00 0.00 76 1008.1
20260904100016 77 231 2.0 6.0 0.00 0.00 0.00 76 1008.1
20260904094515 77 143 1.0 6.0 0.00 0.00 0.00 76 1008.1
20260904093014 77 89 2.0 6.0 0.00 0.00 0.00 76 1008.0
20260904091512 77 195 2.0 7.0 0.00 0.00 0.00 76 1007.9
20260904090011 77 154 1.0 7.0 0.00 0.00 0.00 76 1007.9
20260904084510 78 181 2.0 6.0 0.00 0.00 0.00 76 1007.9
20260904083009 78 131 2.0 8.0 0.00 0.00 0.00 77 1007.8
20260904081508 78 212 2.0 7.0 0.00 0.00 0.00 77 1007.7
20260904080007 78 103 2.0 8.0 0.00 0.00 0.00 76 1007.5
20260904074504 78 225 3.0 8.0 0.00 0.00 0.00 77 1007.5
20260904073003 79 138 0.0 7.0 0.00 0.00 0.00 77 1007.7
20260904071503 79 203 2.0 10.0 0.00 0.00 0.00 76 1007.7
20260904070117 79 222 1.0 9.0 0.00 0.00 0.00 76 1007.8
20260904064559 79 181 3.0 7.0 0.00 0.00 0.00 76 1007.8
20260904063100 79 318 1.0 7.0 0.00 0.00 0.00 75 1008.0
20260904061603 80 255 2.0 9.0 0.00 0.00 0.00 74 1008.0
20260904060054 80 287 2.0 6.0 0.00 0.00 0.00 74 1008.0
20260904054552 80 339 2.0 9.0 0.00 0.00 0.00 73 1007.8
20260904053050 81 200 1.0 9.0 0.00 0.00 0.00 73 1007.8
20260904051551 81 146 3.0 5.0 0.00 0.00 0.00 72 1007.8
20260904050045 81 133 2.0 0.0 0.00 0.00 0.00 71 1007.6
20260904044644 81 145 1.0 8.0 0.00 0.00 0.00 71 1007.7
20260904043055 82 210 3.0 8.0 0.00 0.00 0.00 70 1007.7